This is the latest recevied weather packets stored in our database for station/object W1RCY. If no packets are shown the sender has not sent any weather packets the latest 10 day(s).
| Time | Temp. | Humidity | Pressure | Rain* | Wind** | Luminosity | Snow |
|---|---|---|---|---|---|---|---|
| 1777828730 | 8.33° C | 69% | 1003.5 hPa | 0 mm | - | 221 W/m² | - |
| 1777828426 | 8.33° C | 69% | 1003.5 hPa | 0 mm | - | 223 W/m² | - |
| 1777828124 | 7.78° C | 70% | 1003.6 hPa | 0 mm | - | 234 W/m² | - |
| 1777827820 | 7.78° C | 70% | 1003.5 hPa | 0 mm | - | 223 W/m² | - |
| 1777827517 | 7.78° C | 69% | 1003.8 hPa | 0 mm | - | 214 W/m² | - |
| 1777827215 | 7.78° C | 71% | 1003.7 hPa | 0 mm | - | 210 W/m² | - |
| 1777826911 | 7.78° C | 74% | 1003.8 hPa | 0 mm | - | 189 W/m² | - |
| 1777826609 | 7.22° C | 74% | 1003.9 hPa | 0 mm | - | 184 W/m² | - |
| 1777826304 | 7.22° C | 79% | 1004 hPa | 0 mm | - | 168 W/m² | - |
| 1777826003 | 6.67° C | 78% | 1003.7 hPa | 0 mm | - | 144 W/m² | - |
| 1777825699 | 6.67° C | 79% | 1003.9 hPa | 0 mm | - | 130 W/m² | - |
| 1777825397 | 6.67° C | 80% | 1003.9 hPa | 0 mm | - | 138 W/m² | - |
| 1777825094 | 6.67° C | 80% | 1003.9 hPa | 0 mm | - | 140 W/m² | - |
| 1777824790 | 6.67° C | 79% | 1003.9 hPa | 0 mm | - | 154 W/m² | - |
| 1777824487 | 6.67° C | 81% | 1004 hPa | 0 mm | - | 139 W/m² | - |
| 1777824183 | 6.11° C | 82% | 1004.2 hPa | 0 mm | - | 121 W/m² | - |
| 1777823878 | 6.11° C | 83% | 1004 hPa | 0 mm | - | 115 W/m² | - |
| 1777823577 | 6.11° C | 83% | 1004.2 hPa | 0 mm | - | 111 W/m² | - |
| 1777823273 | 6.11° C | 85% | 1004.2 hPa | 0 mm | - | 113 W/m² | - |
| 1777822971 | 6.11° C | 85% | 1004.3 hPa | 0 mm | - | 105 W/m² | - |
| 1777822669 | 6.11° C | 85% | 1004.2 hPa | 0 mm | - | 107 W/m² | - |
| 1777822367 | 6.11° C | 86% | 1004.2 hPa | 0 mm | - | 105 W/m² | - |
| 1777822064 | 5.56° C | 85% | 1004.1 hPa | 0 mm | - | 110 W/m² | - |
| 1777821762 | 5.56° C | 87% | 1004.1 hPa | 0 mm | - | 106 W/m² | - |
| 1777821458 | 5.56° C | 87% | 1004.3 hPa | 0 mm | - | 100 W/m² | - |
* Rain latest hour (hover to see other rain measurements)
** Current wind speed in m/s (hover to see current wind gust speed)